Weather in Pechersk

Russia / Smolensk Oblast     54°50′57″N   32°02′12″E
temp.,
°C
wind,
m/s
gust,
m/s
humid.,
%
clouds,
%
prec.,
mm/h
press.,
hPa
HPBL,
m
2 july, sat
sat200:00+14e411740 0.0 1022183
03:00+11se37820 0.0 1023112
06:00+13sse38841 0.0 1023174
09:00+17s45651 0.0 1023365
12:00+21s33620 0.0 1023809
15:00+23ssw22614 0.0 10221165
18:00+24wsw126318 0.0 10211192
21:00+19sw22875 0.0 102119
3 july, sun
sun300:00+17wsw2292100 0.0 102020
03:00+16wsw22935 0.0 102118
06:00+17wsw229345 0.0 102051
09:00+22w227879 0.0 1019341
12:00+25wnw22665 0.3 1019839
15:00+26wnw226120 0.8 1018989
18:00+25w347440 0.7 1017239
21:00+21w348476 1.1 101846
4 july, mon
mon400:00+19wnw2289100 0.0 101824
03:00+18wnw339172 0.2 101832
06:00+19nw1287100 0.0 101821
09:00+22w1176100 0.1 1018274
12:00+26w1064100 0.0 1017748
15:00+26wsw1261100 2.7 1016922
18:00+26sw346739 0.2 1015532
21:00+21ssw1178100 1.0 101611
5 july, tue
tue500:00+19ssw2283100 0.0 101611
03:00+17sse22915 0.5 101621
06:00+18s239222 0.6 101670
09:00+22sw3579100 0.7 1015299
12:00+25sw356861 1.6 1015745
15:00+27sw355622 1.9 10141601
18:00+26wsw347191 0.3 1014647
21:00+20w338497 2.1 101437
6 july, wed
wed600:00+17nw4894100 0.0 1015207
03:00+15nw489690 0.0 1016180
06:00+15nw3695100 0.0 1016200
09:00+17wnw2486100 0.0 1016277
12:00+16nw3595100 1.9 1016315
15:00+15w3697100 8.4 1016427
18:00+15w239192 3.0 1015204
21:00+15sw2393100 3.0 101570